Weather History for Lorain / Elyria, OH

Change the Weather History Date:

Monday, January 20, 2014

  Actual Average (KCLE) Record (KCLE)
Temperature  
Mean Temperature 28 °F 28 °F  
Max Temperature 37 °F 34 °F 65 °F (1906)
Min Temperature 19 °F 22 °F -18 °F (1985)
Degree Days  
Heating Degree Days 37 37  
Month to date heating degree days 739  
Since 1 July heating degree days 2846  
Cooling Degree Days 0 0  
Month to date cooling degree days 0  
Year to date cooling degree days 0  
Moisture  
Dew Point 21 °F    
Average Humidity 72    
Maximum Humidity 85    
Minimum Humidity 61    
Precipitation  
Precipitation 0.00 in 0.08 in 0.69 in (1954)
Month to date precipitation 1.84  
Year to date precipitation 1.84  
Snow  
Snow 0.00 in 0.60 in - ()
Month to date snowfall 12.0  
Since 1 July snowfall 30.6  
Snow Depth -    
Sea Level Pressure  
Sea Level Pressure 29.81 in    
Wind  
Wind Speed 14 mph (North)    
Max Wind Speed 21 mph    
Max Gust Speed 28 mph    
Visibility 8 miles    
Events Snow    
T = Trace of Precipitation, MM = Missing Value Source: NWS Daily Summary

Daily Weather History Graph

Daily Weather History Graph

Search for Another Location

Airport:

Trip Planner

Search our weather history database for the weather conditions in past years. The results will help you decide how hot, cold, wet, or windy it might be!

Date:

Astronomy

Jan. 20, 2014 Rise Set
Actual Time 7:49 AM EST 5:30 PM EST
Civil Twilight 7:19 AM EST 6:00 PM EST
Nautical Twilight 6:45 AM EST 6:34 PM EST
Astronomical Twilight 6:12 AM EST 7:07 PM EST
Moon 10:07 PM EST 9:45 AM EST
Length of Visible Light 10h 40m
Length of Day
9h 40m
Waning Gibbous, 83% of the Moon is Illuminated
Jan 20
Waning Gibbous
Jan 24
Last Quarter
Jan 30
New
Feb 6
First Quarter
Feb 14
Full

Hourly Weather History & Observations

Time (EST) Temp. Windchill Dew Point Humidity Pressure Visibility Wind Dir Wind Speed Gust Speed Precip Events Conditions
12:53 AM 34.0 °F 22.4 °F 21.9 °F 61% 29.61 in 10.0 mi SW 20.7 mph 27.6 mph 0.00 in   Mostly Cloudy
1:53 AM 34.0 °F 23.0 °F 23.0 °F 64% 29.59 in 10.0 mi WSW 18.4 mph 26.5 mph 0.00 in   Mostly Cloudy
2:53 AM 35.1 °F 25.2 °F 24.1 °F 64% 29.58 in 10.0 mi SW 16.1 mph - N/A   Overcast
3:53 AM 36.0 °F 25.6 °F 24.1 °F 62% 29.59 in 10.0 mi WSW 18.4 mph 25.3 mph N/A   Overcast
4:53 AM 36.0 °F 26.7 °F 25.0 °F 64% 29.60 in 10.0 mi WSW 15.0 mph - N/A   Overcast
5:46 AM 37.0 °F 28.5 °F 25.0 °F 62% 29.59 in 10.0 mi West 13.8 mph - N/A   Overcast
5:53 AM 37.0 °F 30.4 °F 25.0 °F 62% 29.62 in 10.0 mi West 9.2 mph - N/A   Overcast
6:31 AM 37.0 °F 30.4 °F 26.1 °F 65% 29.62 in 10.0 mi West 9.2 mph - N/A   Overcast
6:53 AM 37.0 °F 28.9 °F 27.0 °F 67% 29.64 in 10.0 mi West 12.7 mph - N/A   Overcast
7:24 AM 37.0 °F 29.3 °F 27.0 °F 67% 29.64 in 10.0 mi WNW 11.5 mph - N/A   Overcast
8:27 AM 34.0 °F 25.0 °F 27.0 °F 75% 29.68 in 7.0 mi NNW 12.7 mph - N/A   Overcast
8:53 AM 33.1 °F 23.4 °F 27.0 °F 78% 29.73 in 6.0 mi NNW 13.8 mph - N/A   Haze
9:20 AM 33.1 °F 23.4 °F 27.0 °F 78% 29.73 in 6.0 mi NW 13.8 mph - N/A   Haze
9:53 AM 33.1 °F 23.9 °F 27.0 °F 78% 29.77 in 5.0 mi NNW 12.7 mph - N/A   Haze
10:23 AM 32.0 °F 22.1 °F 27.0 °F 82% 29.77 in 4.0 mi North 13.8 mph 20.7 mph 0.00 in   Overcast
10:53 AM 30.0 °F 20.5 °F 26.1 °F 85% 29.81 in 5.0 mi NNE 11.5 mph - 0.00 in   Overcast
11:53 AM 28.0 °F 18.1 °F 23.0 °F 81% 29.83 in 7.0 mi North 11.5 mph - N/A   Overcast
12:44 PM 27.0 °F 15.6 °F 19.9 °F 75% 29.82 in 8.0 mi North 13.8 mph - 0.00 in   Overcast
12:53 PM 27.0 °F 15.2 °F 19.9 °F 75% 29.85 in 10.0 mi North 15.0 mph - 0.00 in   Overcast
1:53 PM 27.0 °F 17.3 °F 19.9 °F 75% 29.87 in 10.0 mi North 10.4 mph - N/A   Overcast
2:53 PM 27.0 °F 20.5 °F 19.9 °F 75% 29.89 in 8.0 mi NNW 5.8 mph - N/A   Overcast
3:43 PM 27.0 °F 18.7 °F 19.0 °F 72% 29.88 in 9.0 mi NNW 8.1 mph - 0.00 in   Overcast
3:53 PM 27.0 °F 17.3 °F 19.0 °F 72% 29.91 in 10.0 mi NNW 10.4 mph - 0.00 in   Overcast
4:07 PM 27.0 °F 17.3 °F 18.0 °F 69% 29.89 in 10.0 mi North 10.4 mph - N/A   Overcast
4:53 PM 27.0 °F 19.5 °F 19.0 °F 72% 29.92 in 10.0 mi North 6.9 mph - N/A   Overcast
5:14 PM 26.1 °F 20.5 °F 18.0 °F 71% 29.91 in 10.0 mi North 4.6 mph - N/A   Overcast
5:53 PM 26.1 °F 20.5 °F 18.0 °F 71% 29.94 in 10.0 mi NNE 4.6 mph - N/A   Overcast
6:53 PM 25.0 °F 17.1 °F 17.1 °F 72% 29.96 in 10.0 mi East 6.9 mph - N/A   Overcast
7:53 PM 24.1 °F 14.4 °F 15.1 °F 69% 29.95 in 9.0 mi ENE 9.2 mph - 0.00 in Snow Light Snow
8:53 PM 23.0 °F 11.1 °F 15.1 °F 72% 29.99 in 8.0 mi ENE 12.7 mph - 0.00 in Snow Light Snow
9:53 PM 21.0 °F 8.1 °F 14.0 °F 74% 30.00 in 10.0 mi NE 13.8 mph - 0.00 in   Overcast
10:25 PM 19.9 °F 8.6 °F 12.9 °F 74% 29.96 in 6.0 mi ENE 10.4 mph - 0.00 in Snow Light Snow
10:53 PM 19.9 °F 7.9 °F 12.9 °F 74% 30.00 in 7.0 mi ENE 11.5 mph - 0.00 in Snow Light Snow
11:05 PM 19.9 °F 7.9 °F 12.9 °F 74% 29.97 in 6.0 mi ENE 11.5 mph - 0.00 in Snow Light Snow
11:25 PM 19.9 °F 5.7 °F 12.9 °F 74% 29.97 in 2.5 mi NE 16.1 mph - 0.00 in Snow Light Snow
11:46 PM 19.0 °F 5.6 °F 12.9 °F 77% 29.97 in 4.0 mi NE 13.8 mph - 0.00 in Snow Light Snow
11:53 PM 19.0 °F 6.1 °F 12.9 °F 77% 30.00 in 4.0 mi NE 12.7 mph - 0.00 in Snow Light Snow